Regional Weather Roundup
Issued by NWS Burlington, VT

Home | Current Version | Previous Version | Text Only | Print | Product List | Glossary On
Versions: 1 2 3 4 5 6 7 8 9 10 11 12 13 14 15 16 17 18 19 20 21 22 23 24 25 26 27 28 29 30 31 32 33 34 35 36 37 38 39 40 41 42 43 44 45 46 47 48 49 50
000
ASUS41 KBTV 201610
RWRBTV
VERMONT REGIONAL WEATHER ROUNDUP
NATIONAL WEATHER SERVICE BURLINGTON VT
1200 PM EDT SUN APR 20 2014

NOTE: "FAIR" INDICATES FEW OR NO CLOUDS BELOW 12,000 FEET WITH NO
SIGNIFICANT WEATHER AND/OR OBSTRUCTIONS TO VISIBILITY.

* THESE REPORTS ARE NOT UNDER NWS QUALITY CONTROL AND/OR DO NOT
  REPORT WEATHER SUCH AS PRECIPITATION AND FOG.

VTZ001>019-201700-
_____VERMONT_____


CITY           SKY/WX    TMP DP  RH WIND       PRES   REMARKS
BURLINGTON     MOSUNNY   50  22  33 SW6       30.45F
MONTPELIER     SUNNY     48  10  21 N7        30.47F
MORRISVILLE    SUNNY     50  15  24 VRB3      30.44F
ST. JOHNSBURY*   N/A     50  13  22 MISG      30.42F
LYNDONVILLE*   FAIR      50   3  15 SE3       30.44F
MIDDLEBURY*    FAIR      52  21  29 SW6       30.44F
RUTLAND*       SUNNY     52  12  20 SE7       30.44F
SPRINGFIELD    SUNNY     51  13  21 N3        30.46F
HIGHGATE*      FAIR      54  17  24 SW6       30.45F
NEWPORT*       FAIR      49  13  23 SE3       30.43F
BENNINGTON     SUNNY     53  16  23 E6        30.43F
SUTTON*          N/A     50 N/A N/A MISG        N/A

_____LAKE CHAMPLAIN_____


CITY           SKY/WX    TMP DP  RH WIND       PRES   REMARKS
COLCHESTER RF*   N/A     39  21  48 S5          N/A
DIAMOND ISL*     N/A     45  19  36 SW12        N/A

$$

NYZ007-026>031-035-052-083-201700-
_____NORTHERN NEW YORK_____


CITY           SKY/WX    TMP DP  RH WIND       PRES   REMARKS
PLATTSBURGH    SUNNY     47  20  34 SE9       30.45F
SARANAC LAKE   SUNNY     49  13  23 VRB3      30.38F
MASSENA        SUNNY     53  21  28 MISG      30.43F
OGDENSBURG*    SUNNY     54  23  30 SW3       30.41F
POTSDAM*       SUNNY     54  25  32 CALM      30.40F
WATERTOWN      SUNNY     57  22  25 W8        30.40F
FT DRUM        SUNNY     54  26  33 SE8       30.39F
ALBANY         PTSUNNY   54  18  24 CALM      30.46F
GLENS FALLS    SUNNY     56  26  31 S9        30.45F

$$
NHZ002-005-011-201700-
_____NEW HAMPSHIRE_____


CITY           SKY/WX    TMP DP  RH WIND       PRES   REMARKS
LEBANON        SUNNY     52  13  21 VRB5      30.45F
KEENE          SUNNY     52  19  28 N3        30.47F
MT WASHINGTON  MOSUNNY   32  12  43 W8          N/A
PLYMOUTH         N/A     53  11  19 E5        30.44F
WHITEFIELD     SUNNY     52  12  20 VRB3      30.42F

$$

_____REGIONAL QUEBEC LOCATIONS_____


CITY           SKY/WX    TMP DP  RH WIND       PRES   REMARKS
MONTREAL       PTSUNNY   48  16  27 SE7       30.44F
QUEBEC CITY    CLOUDY    41  19  42 NW5       30.45F
SHERBROOKE     MOSUNNY   48  14  25 E5        30.42F

_____REGIONAL ONTARIO LOCATIONS_____


CITY           SKY/WX    TMP DP  RH WIND       PRES   REMARKS
OTTAWA         MOSUNNY   50  18  27 S8        30.41F

______KEY______
VSB  - VISIBILITY IN MILES
WCI  - WIND CHILL INDEX
HX   - HEAT INDEX
$$
NNNN



USA.gov is the U.S. government's official web portal to all federal, state and local government web resources and services.